Sexton Summit, OR

8:17 AM PST on December 15, 2017 (GMT -0800)
Sexton Summit

Weather History for KSXT - April, 2014

Change the Weather History Date:

Tuesday, April 1, 2014

  Actual Average Record
Temperature  
Mean Temperature 36 °F -  
Max Temperature 46 °F 44 °F 66 °F (2016)
Min Temperature 28 °F 31 °F 26 °F (1997)
Degree Days  
Heating Degree Days 29    
Moisture  
Dew Point 31 °F    
Average Humidity 88    
Maximum Humidity 100    
Minimum Humidity 58    
Precipitation  
Precipitation 0.00 in - - ()
Sea Level Pressure  
Sea Level Pressure 29.78 in    
Wind  
Wind Speed 8 mph (SE)    
Max Wind Speed 14 mph    
Max Gust Speed 23 mph    
Visibility 10 miles    
Events      
Averages and records for this station are not official NWS values.
T = Trace of Precipitation, MM = Missing Value Source: NWS Daily Summary

Daily Weather History Graph

Daily Weather History Graph

Search for Another Location

Airport or City:

Trip Planner

Search our weather history database for the weather conditions in past years. The results will help you decide how hot, cold, wet, or windy it might be!

Date:

Astronomy

Apr. 01, 2014 Rise Set
Actual Time 6:55 AM PDT 7:39 PM PDT
Civil Twilight 6:27 AM PDT 8:08 PM PDT
Nautical Twilight 5:53 AM PDT 8:42 PM PDT
Astronomical Twilight 5:18 AM PDT 9:17 PM PDT
Moon 7:59 AM PDT (4/1) 10:11 PM PDT (4/1)
Length of Visible Light 13h 41m
Length of Day
12h 44m
Waxing Crescent, 5% of the Moon is Illuminated
Apr 1
Waxing Crescent
Apr 7
First Quarter
Apr 15
Full
Apr 22
Last Quarter
Apr 28
New

Hourly Weather History & Observations

Time (PDT) Temp. Windchill Dew Point Humidity Pressure Visibility Wind Dir Wind Speed Gust Speed Precip Events Conditions
12:56 AM 28.9 °F 19.8 °F 28.0 °F 96% 29.75 in 10.0 mi SSE 10.4 mph - N/A   Partly Cloudy
1:24 AM 28.9 °F 20.4 °F 28.0 °F 96% 29.68 in 3.0 mi SSE 9.2 mph - N/A   Mostly Cloudy
1:39 AM 28.9 °F 21.1 °F 28.9 °F 100% 29.69 in 10.0 mi SSE 8.1 mph - N/A   Mostly Cloudy
1:46 AM 28.9 °F 21.9 °F 28.9 °F 100% 29.69 in 10.0 mi SSE 6.9 mph - N/A   Mostly Cloudy
1:56 AM 28.9 °F 20.4 °F 28.9 °F 100% 29.75 in 6.0 mi SSE 9.2 mph - N/A   Overcast
2:17 AM 28.9 °F 20.4 °F 28.0 °F 96% 29.69 in 10.0 mi SE 9.2 mph - N/A   Mostly Cloudy
2:29 AM 28.9 °F 20.4 °F 28.0 °F 96% 29.69 in 10.0 mi SSE 9.2 mph - N/A   Scattered Clouds
2:56 AM 28.9 °F 19.2 °F 28.0 °F 96% 29.74 in 10.0 mi SSE 11.5 mph - N/A   Scattered Clouds
3:07 AM 28.9 °F 19.2 °F 28.0 °F 96% 29.69 in 10.0 mi South 11.5 mph - N/A   Mostly Cloudy
3:56 AM 28.9 °F 19.2 °F 28.0 °F 96% 29.75 in 10.0 mi SSE 11.5 mph - N/A   Mostly Cloudy
4:46 AM 28.0 °F 18.1 °F 27.0 °F 96% 29.68 in 10.0 mi South 11.5 mph - N/A   Partly Cloudy
4:56 AM 28.0 °F 19.3 °F 27.0 °F 96% 29.76 in 10.0 mi South 9.2 mph - N/A   Partly Cloudy
5:56 AM 28.0 °F 19.3 °F 27.0 °F 96% 29.77 in 10.0 mi SE 9.2 mph - N/A   Clear
6:13 AM 28.0 °F 18.6 °F 27.0 °F 96% 29.69 in 6.0 mi SE 10.4 mph - N/A   Partly Cloudy
6:56 AM 28.0 °F 17.0 °F 27.0 °F 96% 29.77 in 10.0 mi SE 13.8 mph - N/A   Clear
7:56 AM 28.0 °F 17.5 °F 27.0 °F 96% 29.79 in 10.0 mi SE 12.7 mph - N/A   Mostly Cloudy
8:08 AM 28.0 °F 18.1 °F 27.0 °F 96% 29.71 in 10.0 mi SE 11.5 mph - N/A   Scattered Clouds
8:56 AM 30.0 °F 21.1 °F 28.9 °F 96% 29.81 in 10.0 mi SE 10.4 mph - N/A   Clear
9:56 AM 32.0 °F 24.2 °F 32.0 °F 100% 29.81 in 10.0 mi SE 9.2 mph - N/A   Clear
10:56 AM 37.9 °F 32.1 °F 35.1 °F 89% 29.81 in 10.0 mi SSE 8.1 mph - N/A   Clear
11:56 AM 41.0 °F - 35.1 °F 79% 29.81 in 10.0 mi Calm Calm - N/A   Clear
12:56 PM 43.0 °F 41.3 °F 35.1 °F 74% 29.81 in 10.0 mi Variable 3.5 mph - N/A   Partly Cloudy
1:53 PM 44.6 °F - 35.6 °F 71% 29.78 in 10.0 mi Calm Calm - N/A   Mostly Cloudy
1:56 PM 42.1 °F - 32.0 °F 67% 29.81 in 10.0 mi Calm Calm - N/A   Mostly Cloudy
2:27 PM 43.0 °F - 30.0 °F 60% 29.78 in 10.0 mi Calm Calm - N/A   Mostly Cloudy
2:56 PM 44.1 °F 42.5 °F 30.0 °F 58% 29.81 in 10.0 mi Variable 3.5 mph - N/A   Mostly Cloudy
3:56 PM 42.1 °F - 32.0 °F 67% 29.81 in 10.0 mi Calm Calm - N/A   Overcast
4:56 PM 44.1 °F - 33.1 °F 65% 29.81 in 10.0 mi Calm Calm - N/A   Partly Cloudy
5:44 PM 41.0 °F - 34.0 °F 76% 29.77 in 10.0 mi North - - 0.00 in   Overcast
5:56 PM 39.9 °F 37.8 °F 34.0 °F 79% 29.83 in 10.0 mi North 3.5 mph - 0.00 in   Overcast
6:21 PM 39.9 °F - 34.0 °F 79% 29.79 in 10.0 mi Calm Calm - N/A   Overcast
6:56 PM 37.9 °F - 36.0 °F 93% 29.85 in 10.0 mi Calm Calm - N/A   Overcast
7:30 PM 36.0 °F 31.1 °F 32.0 °F 86% 29.80 in 10.0 mi Variable 5.8 mph - N/A   Mostly Cloudy
7:56 PM 35.1 °F - 33.1 °F 92% 29.88 in 10.0 mi North - - N/A   Clear
8:56 PM 33.1 °F 26.1 °F 32.0 °F 96% 29.89 in 10.0 mi North 8.1 mph 17.3 mph N/A   Scattered Clouds
9:56 PM 34.0 °F 24.6 °F 30.9 °F 89% 29.91 in 10.0 mi North 13.8 mph 23.0 mph N/A   Overcast
10:56 PM 33.1 °F 26.1 °F 32.0 °F 96% 29.91 in 10.0 mi North 8.1 mph - N/A   Overcast
11:56 PM 33.1 °F 27.7 °F 32.0 °F 96% 29.92 in 10.0 mi NNW 5.8 mph - N/A   Overcast